Simultaneous Nadir Overpasses (SNOs) Predictions

Prediction of SNOs between AQUA and TERRA Satellite Orbit:

Table of predicted SNOs for the next 14.0 days since TLE Epoch: 3/29/2025
Index Date (AQUA) Time (AQUA) Lat,Lon (AQUA) SZA (AQUA ) Date (TERRA) Time (TERRA) Lat,Lon (TERRA) SZA (TERRA ) Distance(km) Time Diff (sec)
1 03/29/2025 04:41:12 -77.02, -70.97 106.52 03/29/2025 04:41:03 -76.99, -70.99 106.55 3.26 9
2 03/29/2025 05:30:31 77.01, 96.73 73.47 03/29/2025 05:30:22 77.02, 96.78 73.47 1.63 9
3 03/29/2025 06:19:49 -77.02, -95.61 106.55 03/29/2025 06:19:42 -76.99, -95.65 106.58 2.94 7
4 03/29/2025 07:09:08 77.01, 72.09 73.43 03/29/2025 07:09:01 77.02, 72.12 73.45 1.45 7
5 03/29/2025 07:58:26 -77.01,-120.24 106.58 03/29/2025 07:58:21 -76.99,-120.31 106.60 2.84 5
6 03/29/2025 08:47:45 77.01, 47.45 73.40 03/29/2025 08:47:40 77.02, 47.46 73.42 1.68 5
7 03/29/2025 09:37:03 -77.01,-144.88 106.61 03/29/2025 09:37:00 -76.99,-144.98 106.63 2.97 3
8 03/29/2025 10:26:22 77.00, 22.81 73.37 03/29/2025 10:26:19 77.02, 22.79 73.39 2.19 3
9 03/29/2025 11:15:40 -77.00,-169.52 106.64 03/29/2025 11:15:39 -76.99,-169.64 106.65 3.30 1
10 03/29/2025 12:04:59 77.00, -1.82 73.34 03/29/2025 12:04:58 77.02, -1.87 73.37 2.82 1
11 03/29/2025 12:54:17 -77.00, 165.84 106.67 03/29/2025 12:54:18 -76.99, 165.70 106.68 3.77 1
12 03/29/2025 13:43:37 77.04, -26.64 73.36 03/29/2025 13:43:37 77.02, -26.53 73.34 3.43 0
13 03/29/2025 14:32:54 -77.00, 141.21 106.71 03/29/2025 14:32:57 -76.99, 141.03 106.71 4.32 3
14 03/29/2025 15:22:14 77.04, -51.28 73.33 03/29/2025 15:22:16 77.02, -51.20 73.31 2.67 2
15 03/29/2025 16:11:32 -77.04, 116.39 106.69 03/29/2025 16:11:35 -77.04, 116.54 106.69 3.74 3
16 03/29/2025 17:00:51 77.03, -75.92 73.30 03/29/2025 17:00:55 77.02, -75.86 73.29 1.93 4
17 03/29/2025 17:50:09 -77.03, 91.75 106.72 03/29/2025 17:50:14 -77.04, 91.88 106.71 3.17 5
18 03/29/2025 18:39:28 77.03,-100.56 73.27 03/29/2025 18:39:34 77.02,-100.52 73.26 1.21 6
19 03/29/2025 19:28:45 -77.03, 67.11 106.75 03/29/2025 19:28:52 -77.04, 67.21 106.74 2.68 7
20 03/29/2025 20:18:04 77.03,-125.19 73.24 03/29/2025 20:18:12 77.02,-125.19 73.23 0.56 8
21 03/29/2025 21:07:22 -77.03, 42.47 106.78 03/29/2025 21:07:31 -77.04, 42.55 106.77 2.33 9
22 03/29/2025 21:56:41 77.02,-149.83 73.21 03/29/2025 21:56:51 77.02,-149.85 73.21 0.50 10
23 03/29/2025 22:45:59 -77.02, 17.84 106.81 03/29/2025 22:46:10 -77.04, 17.89 106.79 2.16 11
24 03/29/2025 23:35:18 77.02,-174.47 73.18 03/29/2025 23:35:30 77.02,-174.52 73.18 1.10 12
25 03/30/2025 00:24:36 -77.02, -6.80 106.84 03/30/2025 00:24:49 -77.04, -6.78 106.82 2.22 13
26 03/30/2025 01:13:55 77.02, 160.89 73.15 03/30/2025 01:14:09 77.02, 160.82 73.15 1.78 14
27 03/30/2025 02:03:13 -77.02, -31.44 106.87 03/30/2025 02:03:28 -77.04, -31.44 106.85 2.48 15
28 03/30/2025 02:52:32 77.01, 136.25 73.12 03/30/2025 02:52:48 77.02, 136.15 73.12 2.47 16
29 03/30/2025 03:41:50 -77.01, -56.08 106.90 03/30/2025 03:42:07 -77.04, -56.11 106.87 2.88 17
30 03/30/2025 04:31:09 77.01, 111.61 73.09 03/30/2025 04:31:27 77.02, 111.49 73.10 3.15 18
31 03/30/2025 05:20:27 -77.01, -80.72 106.93 03/30/2025 05:20:46 -77.04, -80.77 106.90 3.36 19
32 03/30/2025 06:09:47 77.05, 86.79 73.10 03/30/2025 06:10:06 77.02, 86.83 73.07 3.77 19
33 03/30/2025 06:59:05 -77.05,-105.54 106.91 03/30/2025 06:59:25 -77.04,-105.44 106.93 3.15 20
34 03/30/2025 07:48:24 77.05, 62.15 73.07 03/30/2025 07:48:45 77.02, 62.16 73.04 3.37 21
35 03/30/2025 08:37:42 -77.05,-130.18 106.94 03/30/2025 08:38:04 -77.04,-130.10 106.96 2.48 22
36 03/30/2025 09:27:01 77.05, 37.51 73.05 03/30/2025 09:27:24 77.02, 37.50 73.02 3.08 23
37 03/30/2025 10:16:19 -77.05,-154.82 106.97 03/30/2025 10:16:43 -77.04,-154.77 106.98 1.83 24
38 03/30/2025 11:05:38 77.04, 12.86 73.02 03/30/2025 11:06:03 77.02, 12.83 72.99 2.92 25
39 03/30/2025 11:54:56 -77.04,-179.47 107.00 03/30/2025 11:55:22 -77.04,-179.43 107.01 1.20 26
40 03/30/2025 12:44:15 77.04, -11.78 72.99 03/30/2025 12:44:42 77.02, -11.84 72.96 2.92 27
41 03/30/2025 13:33:33 -77.04, 155.89 107.03 03/30/2025 13:34:01 -77.04, 155.91 107.04 0.60 28
42 03/30/2025 14:22:52 77.04, -36.42 72.96 03/30/2025 14:23:21 77.02, -36.50 72.94 3.06 29
43 03/30/2025 15:12:10 -77.04, 131.25 107.06 03/30/2025 15:12:40 -77.04, 131.24 107.06 0.35 30
44 03/30/2025 16:01:29 77.04, -61.06 72.93 03/30/2025 16:02:00 77.02, -61.17 72.91 3.32 31
45 03/30/2025 16:50:47 -77.04, 106.61 107.09 03/30/2025 16:51:19 -77.04, 106.57 107.09 0.82 32
46 03/30/2025 17:40:06 77.03, -85.70 72.90 03/30/2025 17:40:38 77.06, -85.66 72.93 3.64 32
47 03/30/2025 18:29:24 -77.03, 81.97 107.12 03/30/2025 18:29:58 -77.04, 81.91 107.12 1.41 34
48 03/30/2025 19:18:43 77.03,-110.35 72.87 03/30/2025 19:19:17 77.06,-110.33 72.90 3.72 34
49 03/30/2025 20:08:01 -77.03, 57.32 107.15 03/30/2025 20:08:37 -77.04, 57.24 107.14 2.01 36
50 03/30/2025 20:57:20 77.03,-134.99 72.84 03/30/2025 20:57:56 77.06,-134.99 72.87 3.88 36
51 03/30/2025 21:46:38 -77.03, 32.68 107.18 03/30/2025 21:47:16 -77.03, 32.58 107.17 2.61 38
52 03/30/2025 22:35:58 77.07,-159.81 72.86 03/30/2025 22:36:35 77.06,-159.66 72.85 3.98 37
53 03/30/2025 23:25:15 -77.03, 8.04 107.21 03/30/2025 23:25:55 -77.03, 7.91 107.20 3.20 40
54 03/31/2025 00:14:35 77.07, 175.54 72.83 03/31/2025 00:15:14 77.06, 175.68 72.82 3.39 39
55 03/31/2025 01:03:52 -77.02, -16.61 107.23 03/31/2025 01:04:34 -77.03, -16.75 107.23 3.79 42
56 03/31/2025 01:53:12 77.07, 150.90 72.80 03/31/2025 01:53:53 77.06, 151.01 72.79 2.81 41
57 03/31/2025 02:42:30 -77.07, -41.43 107.22 03/31/2025 02:43:13 -77.03, -41.42 107.25 3.92 43
58 03/31/2025 03:31:49 77.06, 126.26 72.77 03/31/2025 03:32:32 77.06, 126.34 72.76 2.24 43
59 03/31/2025 04:21:07 -77.07, -66.07 107.24 03/31/2025 04:21:52 -77.03, -66.09 107.28 3.76 45
60 03/31/2025 05:10:26 77.06, 101.61 72.74 03/31/2025 05:11:11 77.06, 101.68 72.74 1.67 45
61 03/31/2025 05:59:44 -77.06, -90.72 107.27 03/31/2025 06:00:31 -77.03, -90.75 107.31 3.70 47
62 03/31/2025 06:49:03 77.06, 76.97 72.71 03/31/2025 06:49:50 77.06, 77.01 72.71 1.11 47
63 03/31/2025 07:38:21 -77.06,-115.36 107.30 03/31/2025 07:39:09 -77.08,-115.25 107.29 3.39 48
64 03/31/2025 08:27:40 77.06, 52.32 72.69 03/31/2025 08:28:29 77.06, 52.34 72.68 0.56 49
65 03/31/2025 09:16:58 -77.06,-140.01 107.33 03/31/2025 09:17:48 -77.08,-139.91 107.32 3.02 50
66 03/31/2025 10:06:17 77.06, 27.68 72.66 03/31/2025 10:07:08 77.06, 27.68 72.65 0.12 51
67 03/31/2025 10:55:35 -77.06,-164.65 107.36 03/31/2025 10:56:27 -77.08,-164.58 107.34 2.72 52
68 03/31/2025 11:44:54 77.06, 3.03 72.63 03/31/2025 11:45:47 77.05, 3.01 72.63 0.57 53
69 03/31/2025 12:34:12 -77.06, 170.70 107.39 03/31/2025 12:35:06 -77.08, 170.75 107.37 2.49 54
70 03/31/2025 13:23:31 77.05, -21.61 72.60 03/31/2025 13:24:26 77.05, -21.66 72.60 1.10 55
71 03/31/2025 14:12:49 -77.05, 146.06 107.42 03/31/2025 14:13:45 -77.07, 146.09 107.40 2.35 56
72 03/31/2025 15:02:08 77.05, -46.26 72.57 03/31/2025 15:03:05 77.05, -46.33 72.57 1.63 57
73 03/31/2025 15:51:26 -77.05, 121.41 107.44 03/31/2025 15:52:24 -77.07, 121.42 107.43 2.31 58
74 03/31/2025 16:40:45 77.05, -70.91 72.54 03/31/2025 16:41:44 77.05, -70.99 72.54 2.16 59
75 03/31/2025 17:30:03 -77.05, 96.76 107.47 03/31/2025 17:31:03 -77.07, 96.75 107.45 2.38 60
76 03/31/2025 18:19:22 77.05, -95.55 72.52 03/31/2025 18:20:23 77.05, -95.66 72.52 2.69 61
77 03/31/2025 19:08:40 -77.05, 72.12 107.50 03/31/2025 19:09:42 -77.07, 72.08 107.48 2.55 62
78 03/31/2025 19:57:59 77.05,-120.20 72.49 03/31/2025 19:59:02 77.05,-120.33 72.49 3.21 63
79 03/31/2025 20:47:17 -77.05, 47.47 107.53 03/31/2025 20:48:21 -77.07, 47.42 107.51 2.79 64
80 03/31/2025 21:36:36 77.05,-144.85 72.46 03/31/2025 21:37:41 77.05,-145.00 72.46 3.72 65
81 03/31/2025 22:25:53 -77.05, 22.82 107.56 03/31/2025 22:26:59 -77.07, 22.75 107.54 3.08 66
82 03/31/2025 23:15:12 77.04,-169.50 72.43 03/31/2025 23:16:19 77.05,-169.67 72.43 4.23 67
83 04/01/2025 00:04:31 -77.09, -2.00 107.54 04/01/2025 00:05:38 -77.07, -1.92 107.56 3.37 67
84 04/01/2025 00:53:50 77.09, 165.68 72.45 04/01/2025 00:54:57 77.09, 165.84 72.45 4.03 67
85 04/01/2025 01:43:08 -77.09, -26.65 107.56 04/01/2025 01:44:17 -77.07, -26.59 107.59 3.08 69
86 04/01/2025 02:32:27 77.09, 141.03 72.43 04/01/2025 02:33:36 77.09, 141.17 72.43 3.53 69
87 04/01/2025 03:21:45 -77.09, -51.30 107.59 04/01/2025 03:22:56 -77.07, -51.25 107.62 2.86 71
88 04/01/2025 04:11:04 77.09, 116.38 72.40 04/01/2025 04:12:15 77.09, 116.50 72.40 3.03 71
89 04/01/2025 05:00:23 -77.13, -76.13 107.57 04/01/2025 05:01:35 -77.06, -75.92 107.65 9.28 72
90 04/01/2025 05:49:42 77.13, 91.55 72.42 04/01/2025 05:50:54 77.09, 91.83 72.37 8.50 72
91 04/01/2025 06:39:01 -77.18,-100.96 107.55 04/01/2025 06:40:12 -77.16,-100.25 107.58 17.71 71
92 04/01/2025 07:28:21 77.22, 66.54 72.49 04/01/2025 07:29:31 77.18, 67.51 72.44 24.42 70
93 04/01/2025 08:17:40 -77.27,-125.97 107.48 04/01/2025 08:18:49 -77.25,-124.57 107.51 34.55 69
94 04/01/2025 09:07:00 77.31, 41.52 72.55 04/01/2025 09:08:08 77.28, 43.19 72.50 41.22 68
95 04/01/2025 09:56:19 -77.36,-150.99 107.42 04/01/2025 09:57:27 -77.30,-149.06 107.50 47.69 68
96 04/01/2025 10:45:38 77.36, 16.68 72.57 04/01/2025 10:46:46 77.32, 18.70 72.52 49.44 68
97 04/01/2025 11:34:57 -77.40,-175.83 107.40 04/01/2025 11:36:04 -77.39,-173.37 107.43 59.67 67
98 04/01/2025 12:24:17 77.45, -8.34 72.64 04/01/2025 12:25:23 77.41, -5.61 72.59 66.38 66
99 04/01/2025 13:13:36 -77.49, 159.14 107.33 04/01/2025 13:14:41 -77.48, 162.32 107.36 76.60 65
100 04/01/2025 14:02:56 77.54, -33.38 72.71 04/01/2025 14:04:00 77.51, -29.91 72.65 83.36 64
101 04/01/2025 14:52:15 -77.58, 134.11 107.26 04/01/2025 14:53:18 -77.57, 138.02 107.30 93.53 63



Historial Predications of SNOs between AQUA and TERRA
